Volver al catálogo

ARIANE 2 DEB

LostHEO
NORAD 40784·DEBRIS·🇫🇷 France

Lanzado Jan 27, 1989 desde Guiana Space Centre

Loading…

Próximos Pases (próximas 24 horas)

TLE

ObsoletoSource: Space-Track

Época: Jun 14, 2019, 19:01 UTC

1 40784U 89006CD  19165.79294556  .00368873  00000-0  62352-2 0  9990
2 40784   8.2412  46.4860 4786965 125.5460 288.8866  6.12401229181786

Sigue ARIANE 2 DEB en tiempo real con AllMySat

Download on the App Store